Preview of NWS' New Version of Forecast
This preview is not operational and should not be used for support decisions.

Regional Weather Roundup (RWR)

Issued by National Weather Service (NWS)

                            
000
ASCA42 TJSJ 191010
RWRPR 
PUERTO RICO/U.S. VIRGIN ISLANDS HOURLY WEATHER ROUNDUP
NATIONAL WEATHER SERVICE SAN JUAN PR
600 AM AST WED JUN 19 2019

PRZ001>002-007>008-010-191100-
PUERTO RICO
  
CITY           SKY/WX    TMP DP  RH WIND       PRES   REMARKS
SAN JUAN LMM   PTCLDY    81  75  83 E12       30.06S                  
CEIBA          CLOUDY    82  75  78 E8        30.08R                  
$$

VIZ001>002-191100-
U.S. VIRGIN ISLANDS
  
CITY           SKY/WX    TMP DP  RH WIND       PRES   REMARKS
CHARLOTTE AMA  PTCLDY    81  73  78 E10       30.06S                  
CHRISTIANSTED  CLOUDY    79  73  83 NE10      30.06S                  
$$

HOURLY WEATHER ROUNDUP FOR THE NEWS MEDIA
  
CITY           SKY/WX    TMP DP  RH WIND       PRES   REMARKS
ORLANDO        FAIR      76  72  87 SW8       29.99S                  
NEW YORK       CLOUDY    66  66 100 NE3       29.88  FOG              
NEWARK         LGT RAIN  68  66  93 NE5       29.87R                  
CHICAGO        MOCLDY    63  57  81 CALM      29.80S                  
HARTFORD       CLOUDY    64  62  93 N3        29.86R FOG              
BOSTON         FOG       61  59  93 E5        29.87  VSB 1            
DALLAS         MOCLDY    73  68  84 CALM      29.79F                  
PHILADELPHIA   MOCLDY    68  68 100 CALM      29.85F                  
LOS ANGELES    CLOUDY    65  58  78 W6        29.96F                  
WASHINGTON DC  CLOUDY    69  67  93 S3        29.83F